Biloxi, MS

2:29 PM CDT on June 23, 2017 (GMT -0500)
Keesler Air Force Base

Weather History for KBIX - August, 2012

Change the Weather History Date:

Tuesday, August 28, 2012

  Actual Average Record
Temperature  
Mean Temperature 80 °F -  
Max Temperature 85 °F 88 °F 97 °F (1983)
Min Temperature 75 °F 73 °F 66 °F (1968)
Cooling Degree Days 14    
Growing Degree Days 30 (Base 50)    
Moisture  
Dew Point 73 °F    
Average Humidity 85    
Maximum Humidity 94    
Minimum Humidity 70    
Precipitation  
Precipitation 1.24 in - - ()
Sea Level Pressure  
Sea Level Pressure 29.61 in    
Wind  
Wind Speed 20 mph (NE)    
Max Wind Speed 32 mph    
Max Gust Speed 46 mph    
Visibility 8 miles    
Events Rain    
Averages and records for this station are not official NWS values.
T = Trace of Precipitation, MM = Missing Value Source: NWS Daily Summary

Daily Weather History Graph

Daily Weather History Graph

Search for Another Location

Airport or City:

Trip Planner

Search our weather history database for the weather conditions in past years. The results will help you decide how hot, cold, wet, or windy it might be!

Date:

Astronomy

Aug. 28, 2012 Rise Set
Actual Time 6:30 AM CDT 7:22 PM CDT
Civil Twilight 6:05 AM CDT 7:47 PM CDT
Nautical Twilight 5:36 AM CDT 8:16 PM CDT
Astronomical Twilight 5:06 AM CDT 8:45 PM CDT
Moon 5:18 PM CDT (8/28) 3:28 AM CDT (8/28)
Length of Visible Light 13h 41m
Length of Day
12h 52m
Waxing Gibbous, 90% of the Moon is Illuminated
Aug 28
Waxing Gibbous
Aug 31
Full
Sep 8
Last Quarter
Sep 15
New
Sep 22
First Quarter

Hourly Weather History & Observations

Time (CDT) Temp. Heat Index Dew Point Humidity Pressure Visibility Wind Dir Wind Speed Gust Speed Precip Events Conditions
12:55 AM 80.8 °F 84.7 °F 71.6 °F 73% 29.75 in 10.0 mi NE 19.6 mph 24.2 mph N/A   Scattered Clouds
1:33 AM 80.6 °F 84.6 °F 71.6 °F 74% 29.74 in 10.0 mi NE 18.4 mph 31.1 mph N/A   Overcast
1:55 AM 80.4 °F 84.7 °F 72.7 °F 77% 29.72 in 10.0 mi NE 17.3 mph 25.3 mph N/A   Overcast
2:07 AM 80.6 °F 85.4 °F 73.4 °F 79% 29.72 in 10.0 mi NE 17.3 mph 26.5 mph N/A   Overcast
2:09 AM 80.6 °F 85.4 °F 73.4 °F 79% 29.73 in 10.0 mi NE 18.4 mph 26.5 mph N/A   Overcast
2:14 AM 80.6 °F 85.4 °F 73.4 °F 79% 29.72 in 10.0 mi NE 18.4 mph 26.5 mph N/A   Overcast
2:30 AM 80.6 °F 85.4 °F 73.4 °F 79% 29.72 in 10.0 mi NE 19.6 mph - N/A   Overcast
2:33 AM 80.6 °F 85.4 °F 73.4 °F 79% 29.72 in 10.0 mi NE 19.6 mph 32.2 mph N/A   Overcast
2:34 AM 80.6 °F 85.4 °F 73.4 °F 79% 29.72 in 10.0 mi NE 20.7 mph 32.2 mph N/A   Overcast
2:55 AM 79.2 °F - 73.4 °F 82% 29.71 in 10.0 mi NE 18.4 mph 26.5 mph N/A   Overcast
3:05 AM 78.8 °F - 73.4 °F 83% 29.70 in 10.0 mi NE 16.1 mph 25.3 mph N/A   Overcast
3:14 AM 78.8 °F - 73.4 °F 83% 29.70 in 10.0 mi NE 17.3 mph 24.2 mph N/A   Overcast
3:31 AM 78.8 °F - 73.4 °F 83% 29.70 in 10.0 mi NE 15.0 mph 25.3 mph N/A   Overcast
3:32 AM 78.8 °F - 73.4 °F 83% 29.70 in 10.0 mi NE 15.0 mph 25.3 mph N/A   Overcast
3:50 AM 78.8 °F - 73.4 °F 83% 29.70 in 10.0 mi NE 17.3 mph 26.5 mph N/A Rain Light Rain
3:55 AM 78.6 °F - 73.9 °F 85% 29.70 in 10.0 mi NE 19.6 mph 26.5 mph 0.00 in Rain Light Rain
3:57 AM 78.8 °F - 73.4 °F 83% 29.70 in 10.0 mi NE 15.0 mph 26.5 mph N/A Rain Light Rain
3:59 AM 78.8 °F - 73.4 °F 83% 29.70 in 10.0 mi NE 15.0 mph 24.2 mph N/A   Overcast
4:10 AM 78.8 °F - 73.4 °F 83% 29.70 in 10.0 mi NE 15.0 mph 26.5 mph N/A   Overcast
4:20 AM 78.8 °F - 73.4 °F 83% 29.70 in 10.0 mi NE 16.1 mph 23.0 mph N/A   Mostly Cloudy
4:55 AM 78.6 °F - 73.6 °F 84% 29.69 in 10.0 mi NE 16.1 mph 23.0 mph 0.00 in   Mostly Cloudy
5:01 AM 78.8 °F - 73.4 °F 83% 29.69 in 10.0 mi NE 16.1 mph 23.0 mph N/A Rain Light Rain
5:10 AM 78.8 °F - 73.4 °F 83% 29.69 in 10.0 mi NE 17.3 mph 26.5 mph N/A   Overcast
5:52 AM 78.8 °F - 73.4 °F 83% 29.67 in 10.0 mi NNE 19.6 mph 28.8 mph N/A   Mostly Cloudy
5:53 AM 78.8 °F - 73.4 °F 83% 29.68 in 10.0 mi NE 19.6 mph 28.8 mph N/A   Mostly Cloudy
5:55 AM 78.4 °F - 73.8 °F 85% 29.68 in 10.0 mi NNE 18.4 mph 26.5 mph 0.00 in   Mostly Cloudy
5:58 AM 78.8 °F - 73.4 °F 83% 29.68 in 10.0 mi NNE 18.4 mph 26.5 mph N/A   Mostly Cloudy
6:00 AM 78.8 °F - 73.4 °F 83% 29.68 in 10.0 mi NNE 19.6 mph 26.5 mph N/A   Mostly Cloudy
6:05 AM 78.8 °F - 73.4 °F 83% 29.68 in 10.0 mi NE 16.1 mph 25.3 mph N/A   Mostly Cloudy
6:12 AM 78.8 °F - 73.4 °F 83% 29.68 in 10.0 mi NNE 17.3 mph 27.6 mph N/A   Overcast
6:14 AM 78.8 °F - 73.4 °F 83% 29.68 in 10.0 mi NNE 17.3 mph 27.6 mph N/A   Overcast
6:35 AM 78.8 °F - 73.4 °F 83% 29.68 in 10.0 mi NE 18.4 mph 24.2 mph N/A   Mostly Cloudy
6:39 AM 78.8 °F - 73.4 °F 83% 29.68 in 10.0 mi NNE 17.3 mph 24.2 mph N/A   Mostly Cloudy
6:49 AM 78.8 °F - 73.4 °F 83% 29.68 in 10.0 mi NE 21.9 mph 27.6 mph N/A Rain Light Rain
6:50 AM 78.8 °F - 73.4 °F 83% 29.68 in 10.0 mi NE 20.7 mph 27.6 mph N/A   Light Drizzle
6:52 AM 77.0 °F - 73.4 °F 89% 29.68 in 9.0 mi NE 16.1 mph 27.6 mph N/A Rain Light Rain
6:55 AM 77.5 °F - 73.9 °F 89% 29.68 in 9.0 mi NE 18.4 mph 27.6 mph 0.00 in Rain Light Rain
6:59 AM 77.0 °F - 73.4 °F 89% 29.69 in 9.0 mi NE 16.1 mph 27.6 mph N/A Rain Light Rain
7:05 AM 77.0 °F - 73.4 °F 89% 29.69 in 10.0 mi NNE 18.4 mph 25.3 mph N/A   Mostly Cloudy
7:13 AM 77.0 °F - 73.4 °F 89% 29.69 in 10.0 mi NE 16.1 mph 25.3 mph N/A   Mostly Cloudy
7:17 AM 77.0 °F - 73.4 °F 89% 29.69 in 10.0 mi NE 16.1 mph - N/A   Mostly Cloudy
7:33 AM 77.0 °F - 73.4 °F 89% 29.69 in 10.0 mi NNE 17.3 mph 26.5 mph N/A Rain Light Rain
7:42 AM 77.0 °F - 73.4 °F 89% 29.69 in 10.0 mi NNE 18.4 mph - N/A   Mostly Cloudy
7:50 AM 77.0 °F - 73.4 °F 89% 29.69 in 10.0 mi NNE 16.1 mph 23.0 mph N/A Rain Light Rain
7:51 AM 77.0 °F - 73.4 °F 89% 29.69 in 10.0 mi NNE 17.3 mph 24.2 mph N/A Rain Light Rain
7:55 AM 77.0 °F - 74.3 °F 91% 29.69 in 9.0 mi NNE 16.1 mph 24.2 mph 0.00 in Rain Light Rain
7:56 AM 77.0 °F - 73.4 °F 89% 29.69 in 8.0 mi NNE 17.3 mph 24.2 mph N/A Rain Light Rain
7:58 AM 77.0 °F - 73.4 °F 89% 29.69 in 4.0 mi NE 18.4 mph 24.2 mph N/A Rain Light Rain
8:03 AM 77.0 °F - 73.4 °F 89% 29.69 in 2.5 mi NNE 16.1 mph 23.0 mph N/A Rain Heavy Rain
8:04 AM 77.0 °F - 73.4 °F 89% 29.69 in 2.5 mi NNE 15.0 mph 23.0 mph N/A Rain Heavy Rain
8:08 AM 77.0 °F - 73.4 °F 89% 29.69 in 3.0 mi NE 13.8 mph 21.9 mph N/A Rain Light Rain
8:11 AM 77.0 °F - 73.4 °F 89% 29.68 in 4.0 mi NE 16.1 mph - N/A Rain Light Rain
8:13 AM 77.0 °F - 73.4 °F 89% 29.68 in 5.0 mi NNE 17.3 mph 21.9 mph N/A Rain Light Rain
8:20 AM 77.0 °F - 73.4 °F 89% 29.68 in 10.0 mi NNE 18.4 mph 23.0 mph N/A   Light Drizzle
8:23 AM 77.0 °F - 73.4 °F 89% 29.68 in 10.0 mi NNE 19.6 mph 25.3 mph N/A   Mostly Cloudy
8:28 AM 77.0 °F - 75.2 °F 94% 29.68 in 10.0 mi NE 17.3 mph 25.3 mph N/A Rain Light Rain
8:29 AM 77.0 °F - 75.2 °F 94% 29.68 in 10.0 mi NE 19.6 mph 25.3 mph N/A Rain Light Rain
8:36 AM 77.0 °F - 75.2 °F 94% 29.67 in 10.0 mi NNE 17.3 mph 26.5 mph N/A Rain Light Rain
8:37 AM 77.0 °F - 75.2 °F 94% 29.67 in 10.0 mi NE 19.6 mph 26.5 mph N/A   Scattered Clouds
8:49 AM 77.0 °F - 75.2 °F 94% 29.68 in 10.0 mi NNE 17.3 mph 26.5 mph N/A   Mostly Cloudy
8:51 AM 77.0 °F - 75.2 °F 94% 29.67 in 10.0 mi NNE 16.1 mph 26.5 mph N/A Rain Light Rain
8:55 AM 77.7 °F - 75.0 °F 91% 29.67 in 10.0 mi NNE 16.1 mph 26.5 mph 0.06 in Rain Light Rain
9:01 AM 78.8 °F - 75.2 °F 89% 29.67 in 10.0 mi NNE 17.3 mph 24.2 mph N/A   Scattered Clouds
9:55 AM 80.8 °F 86.5 °F 75.0 °F 83% 29.67 in 9.0 mi NE 20.7 mph 26.5 mph 0.00 in Rain Light Rain
9:56 AM 80.6 °F 86.2 °F 75.2 °F 84% 29.67 in 9.0 mi NE 18.4 mph 26.5 mph N/A Rain Light Rain
9:59 AM 80.6 °F 86.2 °F 75.2 °F 84% 29.67 in 9.0 mi NE 18.4 mph 26.5 mph N/A Rain Light Rain
10:07 AM 80.6 °F 86.2 °F 75.2 °F 84% 29.68 in 10.0 mi NE 19.6 mph 25.3 mph N/A   Mostly Cloudy
10:09 AM 80.6 °F 86.2 °F 75.2 °F 84% 29.68 in 10.0 mi NE 18.4 mph - N/A Rain Light Rain
10:11 AM 80.6 °F 86.2 °F 75.2 °F 84% 29.68 in 10.0 mi NE 16.1 mph - N/A Rain Light Rain
10:20 AM 80.6 °F 87.1 °F 77.0 °F 89% 29.68 in 10.0 mi NE 16.1 mph 24.2 mph N/A   Light Drizzle
10:22 AM 80.6 °F 87.1 °F 77.0 °F 89% 29.68 in 10.0 mi NE 18.4 mph 25.3 mph N/A   Scattered Clouds
10:55 AM 83.3 °F 92.4 °F 76.8 °F 81% 29.67 in 10.0 mi NE 13.8 mph 19.6 mph 0.00 in   Partly Cloudy
11:55 AM 84.4 °F 91.7 °F 73.9 °F 71% 29.65 in 10.0 mi NE 23.0 mph 33.4 mph N/A   Scattered Clouds
12:14 PM 82.4 °F 88.2 °F 73.4 °F 74% 29.65 in 10.0 mi ENE 19.6 mph 28.8 mph N/A   Mostly Cloudy
12:24 PM 84.2 °F 92.3 °F 75.2 °F 74% 29.65 in 10.0 mi ENE 20.7 mph 31.1 mph N/A Rain Light Rain
12:45 PM 80.6 °F 86.2 °F 75.2 °F 84% 29.64 in 10.0 mi ENE 18.4 mph 32.2 mph N/A Rain Light Rain
12:46 PM 80.6 °F 86.2 °F 75.2 °F 84% 29.64 in 10.0 mi ENE 18.4 mph 29.9 mph N/A   Mostly Cloudy
12:47 PM 80.6 °F 86.2 °F 75.2 °F 84% 29.64 in 10.0 mi ENE 17.3 mph 26.5 mph N/A   Mostly Cloudy
12:48 PM 80.6 °F 86.2 °F 75.2 °F 84% 29.64 in 10.0 mi ENE 16.1 mph 26.5 mph N/A   Mostly Cloudy
12:55 PM 81.1 °F 87.6 °F 75.7 °F 84% 29.64 in 10.0 mi ENE 17.3 mph 26.5 mph 0.01 in   Mostly Cloudy
1:03 PM 82.4 °F 89.5 °F 75.2 °F 79% 29.63 in 10.0 mi ENE 15.0 mph 23.0 mph N/A   Mostly Cloudy
1:45 PM 84.2 °F 90.9 °F 73.4 °F 70% 29.60 in 10.0 mi NE 24.2 mph 29.9 mph N/A Rain Light Rain
1:55 PM 81.9 °F 88.2 °F 74.8 °F 79% 29.59 in 10.0 mi ENE 23.0 mph 28.8 mph 0.00 in Rain Light Rain
2:03 PM 80.6 °F 86.2 °F 75.2 °F 84% 29.60 in 6.0 mi ENE 18.4 mph 28.8 mph N/A Rain Rain
2:10 PM 80.6 °F 86.2 °F 75.2 °F 84% 29.59 in 2.5 mi ENE 15.0 mph 27.6 mph N/A Rain Heavy Rain
2:13 PM 80.6 °F 86.2 °F 75.2 °F 84% 29.58 in 3.0 mi ENE 16.1 mph 25.3 mph N/A Rain Heavy Rain
2:31 PM 80.6 °F 86.2 °F 75.2 °F 84% 29.59 in 7.0 mi ENE 18.4 mph 36.8 mph N/A Rain Light Rain
2:46 PM 78.8 °F - 75.2 °F 89% 29.59 in 8.0 mi ENE 20.7 mph 31.1 mph N/A Rain Light Rain
2:53 PM 78.8 °F - 75.2 °F 89% 29.59 in 2.5 mi East 18.4 mph 31.1 mph N/A Rain Heavy Rain
2:54 PM 78.8 °F - 75.2 °F 89% 29.58 in 2.0 mi East 17.3 mph 31.1 mph N/A Rain Heavy Rain
2:55 PM 78.3 °F - 74.8 °F 89% 29.58 in 2.0 mi ENE 18.4 mph 31.1 mph 0.27 in Rain Heavy Rain
2:56 PM 78.8 °F - 75.2 °F 89% 29.58 in 1.8 mi ENE 18.4 mph 31.1 mph N/A Rain Heavy Rain
2:59 PM 78.8 °F - 75.2 °F 89% 29.58 in 2.0 mi East 16.1 mph 31.1 mph N/A Rain Heavy Rain
3:02 PM 78.8 °F - 75.2 °F 89% 29.58 in 2.5 mi East 16.1 mph 28.8 mph N/A Rain Light Rain
3:03 PM 78.8 °F - 75.2 °F 89% 29.59 in 3.0 mi East 18.4 mph 26.5 mph N/A Rain Light Rain
3:11 PM 78.8 °F - 75.2 °F 89% 29.58 in 10.0 mi East 25.3 mph 31.1 mph N/A   Mostly Cloudy
3:19 PM 78.8 °F - 75.2 °F 89% 29.58 in 10.0 mi ENE 21.9 mph 29.9 mph N/A   Mostly Cloudy
3:21 PM 78.8 °F - 75.2 °F 89% 29.58 in 10.0 mi ENE 21.9 mph 29.9 mph N/A Rain Light Rain
3:25 PM 78.8 °F - 75.2 °F 89% 29.57 in 10.0 mi ENE 25.3 mph 32.2 mph N/A Rain Light Rain
3:53 PM 78.8 °F - 73.4 °F 83% 29.55 in 10.0 mi ENE 28.8 mph 38.0 mph N/A Rain Light Rain
3:55 PM 78.8 °F - 74.3 °F 86% 29.56 in 9.0 mi ENE 27.6 mph 38.0 mph 0.05 in Rain Light Rain
4:03 PM 78.8 °F - 75.2 °F 89% 29.55 in 2.5 mi ENE 26.5 mph 38.0 mph N/A Rain Heavy Rain
4:08 PM 78.8 °F - 73.4 °F 83% 29.55 in 2.5 mi ENE 27.6 mph 38.0 mph N/A Rain Rain
4:09 PM 78.8 °F - 73.4 °F 83% 29.55 in 3.0 mi ENE 27.6 mph 38.0 mph N/A Rain Rain
4:10 PM 78.8 °F - 73.4 °F 83% 29.55 in 4.0 mi ENE 28.8 mph 42.6 mph N/A Rain Light Rain
4:11 PM 78.8 °F - 73.4 °F 83% 29.55 in 4.0 mi NE 27.6 mph 42.6 mph N/A Rain Light Rain
4:18 PM 77.0 °F - 73.4 °F 89% 29.55 in 8.0 mi ENE 26.5 mph 42.6 mph N/A Rain Light Rain
4:20 PM 77.0 °F - 73.4 °F 89% 29.55 in 10.0 mi ENE 21.9 mph 42.6 mph N/A Rain Light Rain
4:21 PM 77.0 °F - 73.4 °F 89% 29.55 in 10.0 mi ENE 21.9 mph 33.4 mph N/A Rain Light Rain
4:22 PM 77.0 °F - 73.4 °F 89% 29.55 in 10.0 mi ENE 21.9 mph 33.4 mph N/A Rain Light Rain
4:25 PM 77.0 °F - 73.4 °F 89% 29.55 in 10.0 mi ENE 24.2 mph 33.4 mph N/A Rain Light Rain
4:26 PM 77.0 °F - 73.4 °F 89% 29.55 in 10.0 mi ENE 24.2 mph 33.4 mph N/A Rain Light Rain
4:32 PM 78.8 °F - 73.4 °F 83% 29.55 in 10.0 mi ENE 25.3 mph 31.1 mph N/A Rain Light Rain
4:48 PM 78.8 °F - 73.4 °F 83% 29.55 in 10.0 mi ENE 28.8 mph 35.7 mph N/A Rain Light Rain
4:55 PM 78.1 °F - 73.9 °F 87% 29.55 in 10.0 mi NE 27.6 mph 38.0 mph 0.10 in Rain Light Rain
4:58 PM 78.8 °F - 73.4 °F 83% 29.55 in 10.0 mi ENE 26.5 mph 38.0 mph N/A Rain Light Rain
5:02 PM 78.8 °F - 73.4 °F 83% 29.55 in 10.0 mi NE 26.5 mph 38.0 mph N/A Rain Light Rain
5:10 PM 78.8 °F - 73.4 °F 83% 29.54 in 10.0 mi NE 26.5 mph 36.8 mph N/A Rain Light Rain
5:17 PM 78.8 °F - 73.4 °F 83% 29.54 in 5.0 mi ENE 27.6 mph 38.0 mph N/A Rain Rain
5:18 PM 78.8 °F - 73.4 °F 83% 29.55 in 4.0 mi ENE 27.6 mph 38.0 mph N/A Rain Rain
5:36 PM 77.0 °F - 71.6 °F 83% 29.53 in 10.0 mi ENE 31.1 mph 41.4 mph N/A   Overcast
5:38 PM 77.0 °F - 71.6 °F 83% 29.53 in 10.0 mi ENE 32.2 mph 41.4 mph N/A Rain Light Rain
5:40 PM 77.0 °F - 71.6 °F 83% 29.53 in 10.0 mi ENE 28.8 mph 41.4 mph N/A Rain Light Rain
5:55 PM 77.4 °F - 71.4 °F 82% 29.53 in 10.0 mi ENE 28.8 mph 46.0 mph 0.02 in Rain Light Rain
5:59 PM 77.0 °F - 71.6 °F 83% 29.53 in 10.0 mi ENE 27.6 mph 41.4 mph N/A Rain Light Rain
6:00 PM 77.0 °F - 71.6 °F 83% 29.52 in 10.0 mi ENE 28.8 mph 41.4 mph N/A Rain Light Rain
6:44 PM 77.0 °F - 71.6 °F 83% 29.52 in 7.0 mi ENE 25.3 mph 40.3 mph N/A Rain Light Rain
6:45 PM 77.0 °F - 71.6 °F 83% 29.52 in 7.0 mi ENE 25.3 mph 40.3 mph N/A Rain Light Rain
6:47 PM 77.0 °F - 71.6 °F 83% 29.52 in 7.0 mi ENE 24.2 mph 40.3 mph N/A Rain Light Rain
6:55 PM 76.1 °F - 71.2 °F 85% 29.52 in 7.0 mi ENE 28.8 mph 39.1 mph 0.04 in Rain Light Rain
6:56 PM 75.2 °F - 71.6 °F 89% 29.52 in 7.0 mi ENE 27.6 mph 39.1 mph N/A Rain Light Rain
6:57 PM 75.2 °F - 71.6 °F 89% 29.52 in 7.0 mi ENE 25.3 mph 39.1 mph N/A Rain Light Rain
7:05 PM 77.0 °F - 71.6 °F 83% 29.52 in 9.0 mi ENE 27.6 mph 38.0 mph N/A Rain Light Rain
7:08 PM 77.0 °F - 71.6 °F 83% 29.52 in 9.0 mi ENE 28.8 mph 39.1 mph N/A Rain Light Rain
7:09 PM 75.2 °F - 71.6 °F 89% 29.52 in 9.0 mi ENE 27.6 mph 39.1 mph N/A Rain Light Rain
7:12 PM 75.2 °F - 71.6 °F 89% 29.52 in 9.0 mi ENE 26.5 mph 39.1 mph N/A Rain Light Rain
7:43 PM 77.0 °F - 71.6 °F 83% 29.53 in 8.0 mi ENE 26.5 mph 38.0 mph N/A Rain Rain
7:45 PM 77.0 °F - 71.6 °F 83% 29.53 in 8.0 mi ENE 27.6 mph 38.0 mph N/A Rain Rain
7:50 PM 77.0 °F - 71.6 °F 83% 29.53 in 7.0 mi ENE 28.8 mph 38.0 mph N/A Rain Rain
7:55 PM 76.5 °F - 71.4 °F 84% 29.53 in 7.0 mi ENE 26.5 mph 39.1 mph 0.07 in Rain Light Rain
8:02 PM 77.0 °F - 71.6 °F 83% 29.53 in 7.0 mi ENE 28.8 mph 40.3 mph N/A Rain Light Rain
8:15 PM 77.0 °F - 71.6 °F 83% 29.52 in 4.0 mi ENE 25.3 mph 39.1 mph N/A Rain Heavy Rain
8:17 PM 77.0 °F - 71.6 °F 83% 29.53 in 3.0 mi ENE 26.5 mph 38.0 mph N/A Rain Heavy Rain
8:18 PM 77.0 °F - 71.6 °F 83% 29.53 in 3.0 mi ENE 25.3 mph 38.0 mph N/A Rain Heavy Rain
8:19 PM 77.0 °F - 71.6 °F 83% 29.53 in 3.0 mi ENE 24.2 mph 38.0 mph N/A Rain Rain
8:30 PM 77.0 °F - 71.6 °F 83% 29.54 in 6.0 mi ENE 25.3 mph 36.8 mph N/A Rain Rain
8:31 PM 77.0 °F - 71.6 °F 83% 29.54 in 6.0 mi ENE 24.2 mph 36.8 mph N/A Rain Rain
8:32 PM 77.0 °F - 71.6 °F 83% 29.54 in 6.0 mi ENE 21.9 mph 36.8 mph N/A Rain Rain
8:41 PM 77.0 °F - 71.6 °F 83% 29.55 in 5.0 mi ENE 23.0 mph 33.4 mph N/A Rain Rain
8:47 PM 77.0 °F - 71.6 °F 83% 29.54 in 7.0 mi ENE 18.4 mph 31.1 mph N/A Rain Heavy Rain
8:55 PM 76.3 °F - 71.1 °F 84% 29.54 in 7.0 mi ENE 20.7 mph 33.4 mph 0.24 in Rain Heavy Rain
8:59 PM 77.0 °F - 71.6 °F 83% 29.55 in 7.0 mi ENE 19.6 mph 33.4 mph N/A Rain Heavy Rain
9:06 PM 77.0 °F - 71.6 °F 83% 29.55 in 8.0 mi ENE 23.0 mph 34.5 mph N/A Rain Rain
9:07 PM 77.0 °F - 71.6 °F 83% 29.55 in 8.0 mi ENE 23.0 mph 34.5 mph N/A Rain Rain
9:18 PM 75.2 °F - 71.6 °F 89% 29.54 in 4.0 mi ENE 19.6 mph 31.1 mph N/A Rain Heavy Rain
9:25 PM 75.2 °F - 71.6 °F 89% 29.55 in 7.0 mi ENE 21.9 mph 36.8 mph N/A Rain Heavy Rain
9:55 PM 76.6 °F - 71.2 °F 83% 29.55 in 10.0 mi ENE 25.3 mph 34.5 mph 0.23 in Rain Rain
9:59 PM 77.0 °F - 71.6 °F 83% 29.55 in 10.0 mi ENE 23.0 mph 34.5 mph N/A Rain Light Rain
10:30 PM 77.0 °F - 71.6 °F 83% 29.56 in 10.0 mi East 24.2 mph 35.7 mph N/A   Overcast
10:43 PM 78.8 °F - 73.4 °F 83% 29.55 in 10.0 mi East 25.3 mph 31.1 mph N/A Rain Light Rain
10:55 PM 78.8 °F - 73.0 °F 82% 29.55 in 8.0 mi East 27.6 mph 43.7 mph 0.04 in Rain Light Rain
10:59 PM 78.8 °F - 73.4 °F 83% 29.55 in 10.0 mi East 26.5 mph 43.7 mph N/A Rain Light Rain
11:03 PM 78.8 °F - 73.4 °F 83% 29.55 in 10.0 mi East 26.5 mph 43.7 mph N/A Rain Light Rain
11:06 PM 78.8 °F - 73.4 °F 83% 29.55 in 10.0 mi East 26.5 mph 41.4 mph N/A Rain Light Rain
11:15 PM 78.8 °F - 73.4 °F 83% 29.55 in 7.0 mi East 17.3 mph 44.9 mph N/A Rain Rain
11:16 PM 78.8 °F - 73.4 °F 83% 29.55 in 6.0 mi East 17.3 mph 44.9 mph N/A Rain Rain
11:30 PM 78.8 °F - 73.4 °F 83% 29.56 in 6.0 mi East 21.9 mph 40.3 mph N/A Rain Light Rain
11:41 PM 78.8 °F - 73.4 °F 83% 29.56 in 8.0 mi East 27.6 mph 40.3 mph N/A Rain Light Rain
11:48 PM 78.8 °F - 73.4 °F 83% 29.55 in 8.0 mi East 24.2 mph 40.3 mph N/A Rain Rain
11:52 PM 78.8 °F - 73.4 °F 83% 29.55 in 7.0 mi East 27.6 mph 38.0 mph N/A Rain Light Rain
11:53 PM 78.8 °F - 73.4 °F 83% 29.55 in 6.0 mi East 29.9 mph 40.3 mph N/A Rain Light Rain
11:55 PM 79.3 °F - 73.0 °F 81% 29.55 in 6.0 mi East 25.3 mph 40.3 mph 0.11 in Rain Light Rain
11:56 PM 78.8 °F - 73.4 °F 83% 29.55 in 6.0 mi East 26.5 mph 40.3 mph N/A Rain Rain
11:59 PM 78.8 °F - 73.4 °F 83% 29.55 in 6.0 mi East 24.2 mph 40.3 mph N/A Rain Rain